Simultaneous Nadir Overpasses (SNOs) Predictions

Prediction of SNOs near US between AQUA and NPP Satellite Orbit:

Table of predicted SNOs near US for the next 10.0 days since TLE Epoch: 5/28/2022
Index Date (AQUA) Time (AQUA) AQUA Lat,Lon Date (NPP) Time (NPP) NPP Lat,Lon Distance(km) Time Diff (sec)
1 05/30/2022 07:29:58 43.08, -80.17 05/30/2022 07:28:02 43.46, -82.37 182.97 116
2 05/30/2022 09:06:55 49.94,-102.29 05/30/2022 09:07:31 50.43,-104.91 194.84 36
3 06/01/2022 20:04:40 49.99,-106.47 06/01/2022 19:57:46 49.66,-108.49 149.54 414
